Index of /20260426/WXO-DD/model_rdps/10km/00/062
Name Last modified Size Description
Parent Directory -
20260426T00Z_MSC_RDPS_AbsoluteVorticity_IsbL-0250_RLatLon0.09_PT062H.grib2 2026-04-26 02:58 507K
20260426T00Z_MSC_RDPS_AbsoluteVorticity_IsbL-0500_RLatLon0.09_PT062H.grib2 2026-04-26 02:58 569K
20260426T00Z_MSC_RDPS_AbsoluteVorticity_IsbL-0700_RLatLon0.09_PT062H.grib2 2026-04-26 02:58 616K
20260426T00Z_MSC_RDPS_AbsoluteVorticity_IsbL-0850_RLatLon0.09_PT062H.grib2 2026-04-26 02:58 779K
20260426T00Z_MSC_RDPS_AirTemp_AGL-120m_RLatLon0.09_PT062H.grib2 2026-04-26 02:58 386K
20260426T00Z_MSC_RDPS_AirTemp_AGL-2m_RLatLon0.09_PT062H.grib2 2026-04-26 02:58 643K
20260426T00Z_MSC_RDPS_AirTemp_AGL-40m_RLatLon0.09_PT062H.grib2 2026-04-26 02:58 401K
20260426T00Z_MSC_RDPS_AirTemp_AGL-80m_RLatLon0.09_PT062H.grib2 2026-04-26 02:58 394K
20260426T00Z_MSC_RDPS_AirTemp_IsbL-0001_RLatLon0.09_PT062H.grib2 2026-04-26 02:58 275K
20260426T00Z_MSC_RDPS_AirTemp_IsbL-0005_RLatLon0.09_PT062H.grib2 2026-04-26 02:58 297K
20260426T00Z_MSC_RDPS_AirTemp_IsbL-0010_RLatLon0.09_PT062H.grib2 2026-04-26 02:58 308K
20260426T00Z_MSC_RDPS_AirTemp_IsbL-0020_RLatLon0.09_PT062H.grib2 2026-04-26 02:58 323K
20260426T00Z_MSC_RDPS_AirTemp_IsbL-0030_RLatLon0.09_PT062H.grib2 2026-04-26 02:58 342K
20260426T00Z_MSC_RDPS_AirTemp_IsbL-0050_RLatLon0.09_PT062H.grib2 2026-04-26 02:58 321K
20260426T00Z_MSC_RDPS_AirTemp_IsbL-0100_RLatLon0.09_PT062H.grib2 2026-04-26 02:58 431K
20260426T00Z_MSC_RDPS_AirTemp_IsbL-0150_RLatLon0.09_PT062H.grib2 2026-04-26 02:58 432K
20260426T00Z_MSC_RDPS_AirTemp_IsbL-0175_RLatLon0.09_PT062H.grib2 2026-04-26 02:58 421K
20260426T00Z_MSC_RDPS_AirTemp_IsbL-0200_RLatLon0.09_PT062H.grib2 2026-04-26 02:58 421K
20260426T00Z_MSC_RDPS_AirTemp_IsbL-0225_RLatLon0.09_PT062H.grib2 2026-04-26 02:58 421K
20260426T00Z_MSC_RDPS_AirTemp_IsbL-0250_RLatLon0.09_PT062H.grib2 2026-04-26 02:58 430K
20260426T00Z_MSC_RDPS_AirTemp_IsbL-0275_RLatLon0.09_PT062H.grib2 2026-04-26 02:58 411K
20260426T00Z_MSC_RDPS_AirTemp_IsbL-0300_RLatLon0.09_PT062H.grib2 2026-04-26 02:58 416K
20260426T00Z_MSC_RDPS_AirTemp_IsbL-0350_RLatLon0.09_PT062H.grib2 2026-04-26 02:58 427K
20260426T00Z_MSC_RDPS_AirTemp_IsbL-0400_RLatLon0.09_PT062H.grib2 2026-04-26 02:58 427K
20260426T00Z_MSC_RDPS_AirTemp_IsbL-0450_RLatLon0.09_PT062H.grib2 2026-04-26 02:58 433K
20260426T00Z_MSC_RDPS_AirTemp_IsbL-0500_RLatLon0.09_PT062H.grib2 2026-04-26 02:58 408K
20260426T00Z_MSC_RDPS_AirTemp_IsbL-0550_RLatLon0.09_PT062H.grib2 2026-04-26 02:58 422K
20260426T00Z_MSC_RDPS_AirTemp_IsbL-0600_RLatLon0.09_PT062H.grib2 2026-04-26 02:58 439K
20260426T00Z_MSC_RDPS_AirTemp_IsbL-0650_RLatLon0.09_PT062H.grib2 2026-04-26 02:58 453K
20260426T00Z_MSC_RDPS_AirTemp_IsbL-0700_RLatLon0.09_PT062H.grib2 2026-04-26 02:58 479K
20260426T00Z_MSC_RDPS_AirTemp_IsbL-0750_RLatLon0.09_PT062H.grib2 2026-04-26 02:58 406K
20260426T00Z_MSC_RDPS_AirTemp_IsbL-0800_RLatLon0.09_PT062H.grib2 2026-04-26 02:58 455K
20260426T00Z_MSC_RDPS_AirTemp_IsbL-0850_RLatLon0.09_PT062H.grib2 2026-04-26 02:58 508K
20260426T00Z_MSC_RDPS_AirTemp_IsbL-0875_RLatLon0.09_PT062H.grib2 2026-04-26 02:58 526K
20260426T00Z_MSC_RDPS_AirTemp_IsbL-0900_RLatLon0.09_PT062H.grib2 2026-04-26 02:58 533K
20260426T00Z_MSC_RDPS_AirTemp_IsbL-0925_RLatLon0.09_PT062H.grib2 2026-04-26 02:58 530K
20260426T00Z_MSC_RDPS_AirTemp_IsbL-0950_RLatLon0.09_PT062H.grib2 2026-04-26 02:58 534K
20260426T00Z_MSC_RDPS_AirTemp_IsbL-0970_RLatLon0.09_PT062H.grib2 2026-04-26 02:58 531K
20260426T00Z_MSC_RDPS_AirTemp_IsbL-0985_RLatLon0.09_PT062H.grib2 2026-04-26 02:58 520K
20260426T00Z_MSC_RDPS_AirTemp_IsbL-1000_RLatLon0.09_PT062H.grib2 2026-04-26 02:58 504K
20260426T00Z_MSC_RDPS_AirTemp_IsbL-1015_RLatLon0.09_PT062H.grib2 2026-04-26 02:58 502K
20260426T00Z_MSC_RDPS_Albedo_Sfc_RLatLon0.09_PT062H.grib2 2026-04-26 02:58 163K
20260426T00Z_MSC_RDPS_CAPE_Sfc_RLatLon0.09_PT062H.grib2 2026-04-26 02:58 1.7M
20260426T00Z_MSC_RDPS_CIN_Sfc_RLatLon0.09_PT062H.grib2 2026-04-26 02:58 1.1M
20260426T00Z_MSC_RDPS_CloudWater_EAtm_RLatLon0.09_PT062H.grib2 2026-04-26 02:58 219K
20260426T00Z_MSC_RDPS_ConvectivePrecip-Accum_Sfc_RLatLon0.09_PT062H.grib2 2026-04-26 02:58 1.2M
20260426T00Z_MSC_RDPS_DewPointDepression_AGL-2m_RLatLon0.09_PT062H.grib2 2026-04-26 02:58 410K
20260426T00Z_MSC_RDPS_DewPointDepression_IsbL-0001_RLatLon0.09_PT062H.grib2 2026-04-26 02:58 193
20260426T00Z_MSC_RDPS_DewPointDepression_IsbL-0005_RLatLon0.09_PT062H.grib2 2026-04-26 02:58 193
20260426T00Z_MSC_RDPS_DewPointDepression_IsbL-0010_RLatLon0.09_PT062H.grib2 2026-04-26 02:58 193
20260426T00Z_MSC_RDPS_DewPointDepression_IsbL-0020_RLatLon0.09_PT062H.grib2 2026-04-26 02:58 193
20260426T00Z_MSC_RDPS_DewPointDepression_IsbL-0030_RLatLon0.09_PT062H.grib2 2026-04-26 02:58 1.0K
20260426T00Z_MSC_RDPS_DewPointDepression_IsbL-0050_RLatLon0.09_PT062H.grib2 2026-04-26 02:58 87K
20260426T00Z_MSC_RDPS_DewPointDepression_IsbL-0100_RLatLon0.09_PT062H.grib2 2026-04-26 02:58 130K
20260426T00Z_MSC_RDPS_DewPointDepression_IsbL-0150_RLatLon0.09_PT062H.grib2 2026-04-26 02:58 151K
20260426T00Z_MSC_RDPS_DewPointDepression_IsbL-0175_RLatLon0.09_PT062H.grib2 2026-04-26 02:58 181K
20260426T00Z_MSC_RDPS_DewPointDepression_IsbL-0200_RLatLon0.09_PT062H.grib2 2026-04-26 02:58 219K
20260426T00Z_MSC_RDPS_DewPointDepression_IsbL-0225_RLatLon0.09_PT062H.grib2 2026-04-26 02:58 262K
20260426T00Z_MSC_RDPS_DewPointDepression_IsbL-0250_RLatLon0.09_PT062H.grib2 2026-04-26 02:58 300K
20260426T00Z_MSC_RDPS_DewPointDepression_IsbL-0275_RLatLon0.09_PT062H.grib2 2026-04-26 02:58 308K
20260426T00Z_MSC_RDPS_DewPointDepression_IsbL-0300_RLatLon0.09_PT062H.grib2 2026-04-26 02:58 323K
20260426T00Z_MSC_RDPS_DewPointDepression_IsbL-0350_RLatLon0.09_PT062H.grib2 2026-04-26 02:58 330K
20260426T00Z_MSC_RDPS_DewPointDepression_IsbL-0400_RLatLon0.09_PT062H.grib2 2026-04-26 02:58 342K
20260426T00Z_MSC_RDPS_DewPointDepression_IsbL-0450_RLatLon0.09_PT062H.grib2 2026-04-26 02:58 347K
20260426T00Z_MSC_RDPS_DewPointDepression_IsbL-0500_RLatLon0.09_PT062H.grib2 2026-04-26 02:58 353K
20260426T00Z_MSC_RDPS_DewPointDepression_IsbL-0550_RLatLon0.09_PT062H.grib2 2026-04-26 02:58 363K
20260426T00Z_MSC_RDPS_DewPointDepression_IsbL-0600_RLatLon0.09_PT062H.grib2 2026-04-26 02:58 374K
20260426T00Z_MSC_RDPS_DewPointDepression_IsbL-0650_RLatLon0.09_PT062H.grib2 2026-04-26 02:58 379K
20260426T00Z_MSC_RDPS_DewPointDepression_IsbL-0700_RLatLon0.09_PT062H.grib2 2026-04-26 02:58 392K
20260426T00Z_MSC_RDPS_DewPointDepression_IsbL-0750_RLatLon0.09_PT062H.grib2 2026-04-26 02:58 415K
20260426T00Z_MSC_RDPS_DewPointDepression_IsbL-0800_RLatLon0.09_PT062H.grib2 2026-04-26 02:58 449K
20260426T00Z_MSC_RDPS_DewPointDepression_IsbL-0850_RLatLon0.09_PT062H.grib2 2026-04-26 02:58 475K
20260426T00Z_MSC_RDPS_DewPointDepression_IsbL-0875_RLatLon0.09_PT062H.grib2 2026-04-26 02:58 477K
20260426T00Z_MSC_RDPS_DewPointDepression_IsbL-0900_RLatLon0.09_PT062H.grib2 2026-04-26 02:58 466K
20260426T00Z_MSC_RDPS_DewPointDepression_IsbL-0925_RLatLon0.09_PT062H.grib2 2026-04-26 02:58 455K
20260426T00Z_MSC_RDPS_DewPointDepression_IsbL-0950_RLatLon0.09_PT062H.grib2 2026-04-26 02:58 448K
20260426T00Z_MSC_RDPS_DewPointDepression_IsbL-0970_RLatLon0.09_PT062H.grib2 2026-04-26 02:58 442K
20260426T00Z_MSC_RDPS_DewPointDepression_IsbL-0985_RLatLon0.09_PT062H.grib2 2026-04-26 02:58 439K
20260426T00Z_MSC_RDPS_DewPointDepression_IsbL-1000_RLatLon0.09_PT062H.grib2 2026-04-26 02:58 436K
20260426T00Z_MSC_RDPS_DewPointDepression_IsbL-1015_RLatLon0.09_PT062H.grib2 2026-04-26 02:58 431K
20260426T00Z_MSC_RDPS_DewPoint_AGL-2m_RLatLon0.09_PT062H.grib2 2026-04-26 02:58 317K
20260426T00Z_MSC_RDPS_DownwardLongwaveRadiationFlux-Accum_Sfc_RLatLon0.09_PT062H.grib2 2026-04-26 02:58 416K
20260426T00Z_MSC_RDPS_DownwardShortwaveRadiationFlux-Accum_NTAtm_RLatLon0.09_PT062H.grib2 2026-04-26 02:58 156K
20260426T00Z_MSC_RDPS_DownwardShortwaveRadiationFlux-Accum_Sfc_RLatLon0.09_PT062H.grib2 2026-04-26 02:58 589K
20260426T00Z_MSC_RDPS_FreezingRain-Accum1h_Sfc_RLatLon0.09_PT062H.grib2 2026-04-26 02:58 45K
20260426T00Z_MSC_RDPS_FreezingRain-Accum_Sfc_RLatLon0.09_PT062H.grib2 2026-04-26 02:58 165K
20260426T00Z_MSC_RDPS_GeopotentialHeight_IsbL-0001_RLatLon0.09_PT062H.grib2 2026-04-26 02:58 243K
20260426T00Z_MSC_RDPS_GeopotentialHeight_IsbL-0005_RLatLon0.09_PT062H.grib2 2026-04-26 02:58 341K
20260426T00Z_MSC_RDPS_GeopotentialHeight_IsbL-0010_RLatLon0.09_PT062H.grib2 2026-04-26 02:58 342K
20260426T00Z_MSC_RDPS_GeopotentialHeight_IsbL-0020_RLatLon0.09_PT062H.grib2 2026-04-26 02:58 308K
20260426T00Z_MSC_RDPS_GeopotentialHeight_IsbL-0030_RLatLon0.09_PT062H.grib2 2026-04-26 02:58 310K
20260426T00Z_MSC_RDPS_GeopotentialHeight_IsbL-0050_RLatLon0.09_PT062H.grib2 2026-04-26 02:58 343K
20260426T00Z_MSC_RDPS_GeopotentialHeight_IsbL-0100_RLatLon0.09_PT062H.grib2 2026-04-26 02:58 288K
20260426T00Z_MSC_RDPS_GeopotentialHeight_IsbL-0150_RLatLon0.09_PT062H.grib2 2026-04-26 02:58 230K
20260426T00Z_MSC_RDPS_GeopotentialHeight_IsbL-0175_RLatLon0.09_PT062H.grib2 2026-04-26 02:58 265K
20260426T00Z_MSC_RDPS_GeopotentialHeight_IsbL-0200_RLatLon0.09_PT062H.grib2 2026-04-26 02:58 267K
20260426T00Z_MSC_RDPS_GeopotentialHeight_IsbL-0225_RLatLon0.09_PT062H.grib2 2026-04-26 02:58 268K
20260426T00Z_MSC_RDPS_GeopotentialHeight_IsbL-0250_RLatLon0.09_PT062H.grib2 2026-04-26 02:58 269K
20260426T00Z_MSC_RDPS_GeopotentialHeight_IsbL-0275_RLatLon0.09_PT062H.grib2 2026-04-26 02:58 268K
20260426T00Z_MSC_RDPS_GeopotentialHeight_IsbL-0300_RLatLon0.09_PT062H.grib2 2026-04-26 02:58 268K
20260426T00Z_MSC_RDPS_GeopotentialHeight_IsbL-0350_RLatLon0.09_PT062H.grib2 2026-04-26 02:58 234K
20260426T00Z_MSC_RDPS_GeopotentialHeight_IsbL-0400_RLatLon0.09_PT062H.grib2 2026-04-26 02:58 230K
20260426T00Z_MSC_RDPS_GeopotentialHeight_IsbL-0450_RLatLon0.09_PT062H.grib2 2026-04-26 02:58 226K
20260426T00Z_MSC_RDPS_GeopotentialHeight_IsbL-0500_RLatLon0.09_PT062H.grib2 2026-04-26 02:58 293K
20260426T00Z_MSC_RDPS_GeopotentialHeight_IsbL-0550_RLatLon0.09_PT062H.grib2 2026-04-26 02:58 289K
20260426T00Z_MSC_RDPS_GeopotentialHeight_IsbL-0600_RLatLon0.09_PT062H.grib2 2026-04-26 02:58 286K
20260426T00Z_MSC_RDPS_GeopotentialHeight_IsbL-0650_RLatLon0.09_PT062H.grib2 2026-04-26 02:58 255K
20260426T00Z_MSC_RDPS_GeopotentialHeight_IsbL-0700_RLatLon0.09_PT062H.grib2 2026-04-26 02:58 253K
20260426T00Z_MSC_RDPS_GeopotentialHeight_IsbL-0750_RLatLon0.09_PT062H.grib2 2026-04-26 02:58 337K
20260426T00Z_MSC_RDPS_GeopotentialHeight_IsbL-0800_RLatLon0.09_PT062H.grib2 2026-04-26 02:58 345K
20260426T00Z_MSC_RDPS_GeopotentialHeight_IsbL-0850_RLatLon0.09_PT062H.grib2 2026-04-26 02:58 357K
20260426T00Z_MSC_RDPS_GeopotentialHeight_IsbL-0875_RLatLon0.09_PT062H.grib2 2026-04-26 02:58 361K
20260426T00Z_MSC_RDPS_GeopotentialHeight_IsbL-0900_RLatLon0.09_PT062H.grib2 2026-04-26 02:58 365K
20260426T00Z_MSC_RDPS_GeopotentialHeight_IsbL-0925_RLatLon0.09_PT062H.grib2 2026-04-26 02:58 370K
20260426T00Z_MSC_RDPS_GeopotentialHeight_IsbL-0950_RLatLon0.09_PT062H.grib2 2026-04-26 02:58 371K
20260426T00Z_MSC_RDPS_GeopotentialHeight_IsbL-0970_RLatLon0.09_PT062H.grib2 2026-04-26 02:58 377K
20260426T00Z_MSC_RDPS_GeopotentialHeight_IsbL-0985_RLatLon0.09_PT062H.grib2 2026-04-26 02:58 385K
20260426T00Z_MSC_RDPS_GeopotentialHeight_IsbL-1000_RLatLon0.09_PT062H.grib2 2026-04-26 02:58 398K
20260426T00Z_MSC_RDPS_GeopotentialHeight_IsbL-1015_RLatLon0.09_PT062H.grib2 2026-04-26 02:58 449K
20260426T00Z_MSC_RDPS_Humidex_Sfc_RLatLon0.09_PT062H.grib2 2026-04-26 02:58 2.4M
20260426T00Z_MSC_RDPS_IcePellets-Accum1h_Sfc_RLatLon0.09_PT062H.grib2 2026-04-26 02:58 10K
20260426T00Z_MSC_RDPS_IcePellets-Accum_Sfc_RLatLon0.09_PT062H.grib2 2026-04-26 02:58 42K
20260426T00Z_MSC_RDPS_KIndex_Sfc_RLatLon0.09_PT062H.grib2 2026-04-26 02:58 2.5M
20260426T00Z_MSC_RDPS_LatentHeatNetFlux_Sfc_RLatLon0.09_PT062H.grib2 2026-04-26 02:58 363K
20260426T00Z_MSC_RDPS_LiftedIndex-MU-VT_IsbL-0500_RLatLon0.09_PT062H.grib2 2026-04-26 02:58 2.4M
20260426T00Z_MSC_RDPS_NetLongwaveRadiationFlux-Accum_Sfc_RLatLon0.09_PT062H.grib2 2026-04-26 02:58 591K
20260426T00Z_MSC_RDPS_NetShortwaveRadiationFlux-Accum_Sfc_RLatLon0.09_PT062H.grib2 2026-04-26 02:58 592K
20260426T00Z_MSC_RDPS_PlanetaryBoundaryLayerHeight_Sfc_RLatLon0.09_PT062H.grib2 2026-04-26 02:58 1.2M
20260426T00Z_MSC_RDPS_Precip-Accum1h_Sfc_RLatLon0.09_PT062H.grib2 2026-04-26 02:58 1.3M
20260426T00Z_MSC_RDPS_Precip-Accum_Sfc_RLatLon0.09_PT062H.grib2 2026-04-26 02:58 2.2M
20260426T00Z_MSC_RDPS_PrecipRate_Sfc_RLatLon0.09_PT062H.grib2 2026-04-26 02:58 173K
20260426T00Z_MSC_RDPS_PrecipType-Instant_Sfc_RLatLon0.09_PT062H.grib2 2026-04-26 02:58 563K
20260426T00Z_MSC_RDPS_Pressure-Trend3h_Sfc_RLatLon0.09_PT062H.grib2 2026-04-26 02:58 1.2M
20260426T00Z_MSC_RDPS_Pressure_MSL_RLatLon0.09_PT062H.grib2 2026-04-26 02:58 296K
20260426T00Z_MSC_RDPS_Pressure_PVU-1.5_RLatLon0.09_PT062H.grib2 2026-04-26 02:58 2.5M
20260426T00Z_MSC_RDPS_Pressure_PVU-1_RLatLon0.09_PT062H.grib2 2026-04-26 02:58 2.4M
20260426T00Z_MSC_RDPS_Pressure_PVU-2_RLatLon0.09_PT062H.grib2 2026-04-26 02:58 2.4M
20260426T00Z_MSC_RDPS_Pressure_Sfc_RLatLon0.09_PT062H.grib2 2026-04-26 02:58 501K
20260426T00Z_MSC_RDPS_RadiativeTemp_Sfc_RLatLon0.09_PT062H.grib2 2026-04-26 02:58 312K
20260426T00Z_MSC_RDPS_Rain-Accum1h_Sfc_RLatLon0.09_PT062H.grib2 2026-04-26 02:58 597K
20260426T00Z_MSC_RDPS_Rain-Accum_Sfc_RLatLon0.09_PT062H.grib2 2026-04-26 02:58 1.7M
20260426T00Z_MSC_RDPS_RelativeHumidity_AGL-2m_RLatLon0.09_PT062H.grib2 2026-04-26 02:58 1.0M
20260426T00Z_MSC_RDPS_RelativeHumidity_IsbL-0010_RLatLon0.09_PT062H.grib2 2026-04-26 02:58 624K
20260426T00Z_MSC_RDPS_RelativeHumidity_IsbL-0020_RLatLon0.09_PT062H.grib2 2026-04-26 02:58 649K
20260426T00Z_MSC_RDPS_RelativeHumidity_IsbL-0030_RLatLon0.09_PT062H.grib2 2026-04-26 02:58 542K
20260426T00Z_MSC_RDPS_RelativeHumidity_IsbL-0050_RLatLon0.09_PT062H.grib2 2026-04-26 02:58 328K
20260426T00Z_MSC_RDPS_RelativeHumidity_IsbL-0100_RLatLon0.09_PT062H.grib2 2026-04-26 02:58 281K
20260426T00Z_MSC_RDPS_RelativeHumidity_IsbL-0150_RLatLon0.09_PT062H.grib2 2026-04-26 02:58 415K
20260426T00Z_MSC_RDPS_RelativeHumidity_IsbL-0175_RLatLon0.09_PT062H.grib2 2026-04-26 02:58 487K
20260426T00Z_MSC_RDPS_RelativeHumidity_IsbL-0200_RLatLon0.09_PT062H.grib2 2026-04-26 02:58 556K
20260426T00Z_MSC_RDPS_RelativeHumidity_IsbL-0225_RLatLon0.09_PT062H.grib2 2026-04-26 02:58 619K
20260426T00Z_MSC_RDPS_RelativeHumidity_IsbL-0250_RLatLon0.09_PT062H.grib2 2026-04-26 02:58 691K
20260426T00Z_MSC_RDPS_RelativeHumidity_IsbL-0275_RLatLon0.09_PT062H.grib2 2026-04-26 02:58 722K
20260426T00Z_MSC_RDPS_RelativeHumidity_IsbL-0300_RLatLon0.09_PT062H.grib2 2026-04-26 02:58 762K
20260426T00Z_MSC_RDPS_RelativeHumidity_IsbL-0350_RLatLon0.09_PT062H.grib2 2026-04-26 02:58 784K
20260426T00Z_MSC_RDPS_RelativeHumidity_IsbL-0400_RLatLon0.09_PT062H.grib2 2026-04-26 02:58 797K
20260426T00Z_MSC_RDPS_RelativeHumidity_IsbL-0450_RLatLon0.09_PT062H.grib2 2026-04-26 02:58 803K
20260426T00Z_MSC_RDPS_RelativeHumidity_IsbL-0500_RLatLon0.09_PT062H.grib2 2026-04-26 02:58 808K
20260426T00Z_MSC_RDPS_RelativeHumidity_IsbL-0550_RLatLon0.09_PT062H.grib2 2026-04-26 02:58 824K
20260426T00Z_MSC_RDPS_RelativeHumidity_IsbL-0600_RLatLon0.09_PT062H.grib2 2026-04-26 02:58 840K
20260426T00Z_MSC_RDPS_RelativeHumidity_IsbL-0650_RLatLon0.09_PT062H.grib2 2026-04-26 02:58 850K
20260426T00Z_MSC_RDPS_RelativeHumidity_IsbL-0700_RLatLon0.09_PT062H.grib2 2026-04-26 02:58 884K
20260426T00Z_MSC_RDPS_RelativeHumidity_IsbL-0750_RLatLon0.09_PT062H.grib2 2026-04-26 02:58 921K
20260426T00Z_MSC_RDPS_RelativeHumidity_IsbL-0800_RLatLon0.09_PT062H.grib2 2026-04-26 02:58 1.0M
20260426T00Z_MSC_RDPS_RelativeHumidity_IsbL-0850_RLatLon0.09_PT062H.grib2 2026-04-26 02:58 1.0M
20260426T00Z_MSC_RDPS_RelativeHumidity_IsbL-0875_RLatLon0.09_PT062H.grib2 2026-04-26 02:58 1.1M
20260426T00Z_MSC_RDPS_RelativeHumidity_IsbL-0900_RLatLon0.09_PT062H.grib2 2026-04-26 02:58 1.1M
20260426T00Z_MSC_RDPS_RelativeHumidity_IsbL-0925_RLatLon0.09_PT062H.grib2 2026-04-26 02:58 1.1M
20260426T00Z_MSC_RDPS_RelativeHumidity_IsbL-0950_RLatLon0.09_PT062H.grib2 2026-04-26 02:58 1.1M
20260426T00Z_MSC_RDPS_RelativeHumidity_IsbL-0970_RLatLon0.09_PT062H.grib2 2026-04-26 02:58 1.1M
20260426T00Z_MSC_RDPS_RelativeHumidity_IsbL-0985_RLatLon0.09_PT062H.grib2 2026-04-26 02:58 1.1M
20260426T00Z_MSC_RDPS_RelativeHumidity_IsbL-1000_RLatLon0.09_PT062H.grib2 2026-04-26 02:58 1.0M
20260426T00Z_MSC_RDPS_RelativeHumidity_IsbL-1015_RLatLon0.09_PT062H.grib2 2026-04-26 02:58 1.0M
20260426T00Z_MSC_RDPS_Runoff-Accum_Sfc_RLatLon0.09_PT062H.grib2 2026-04-26 02:58 54K
20260426T00Z_MSC_RDPS_SWEATIndex_Sfc_RLatLon0.09_PT062H.grib2 2026-04-26 02:58 2.4M
20260426T00Z_MSC_RDPS_SeeingIndex_EAtm_RLatLon0.09_PT062H.grib2 2026-04-26 02:58 1.0M
20260426T00Z_MSC_RDPS_SensibleHeatNetFlux_Sfc_RLatLon0.09_PT062H.grib2 2026-04-26 02:58 341K
20260426T00Z_MSC_RDPS_ShowalterIndex_IsbL-0500_RLatLon0.09_PT062H.grib2 2026-04-26 02:58 2.6M
20260426T00Z_MSC_RDPS_SkyTransparencyIndex_EAtm_RLatLon0.09_PT062H.grib2 2026-04-26 02:58 708K
20260426T00Z_MSC_RDPS_Snow-Accum1h_Sfc_RLatLon0.09_PT062H.grib2 2026-04-26 02:58 485K
20260426T00Z_MSC_RDPS_Snow-Accum_Sfc_RLatLon0.09_PT062H.grib2 2026-04-26 02:58 857K
20260426T00Z_MSC_RDPS_SnowDensity_Sfc_RLatLon0.09_PT062H.grib2 2026-04-26 02:58 186K
20260426T00Z_MSC_RDPS_SnowDepth_Sfc_RLatLon0.09_PT062H.grib2 2026-04-26 02:58 722K
20260426T00Z_MSC_RDPS_SoilTemp_DBS-0to10cm_RLatLon0.09_PT062H.grib2 2026-04-26 02:58 238K
20260426T00Z_MSC_RDPS_SoilTemp_Sfc_RLatLon0.09_PT062H.grib2 2026-04-26 02:58 280K
20260426T00Z_MSC_RDPS_SoilVolumetricIceContent_Sfc_RLatLon0.09_PT062H.grib2 2026-04-26 02:58 170K
20260426T00Z_MSC_RDPS_SoilVolumetricWaterContent_DBS-0to10cm_RLatLon0.09_PT062H.grib2 2026-04-26 02:58 262K
20260426T00Z_MSC_RDPS_SoilVolumetricWaterContent_DBS-0to1cm_RLatLon0.09_PT062H.grib2 2026-04-26 02:58 341K
20260426T00Z_MSC_RDPS_SpecificHumidity_AGL-120m_RLatLon0.09_PT062H.grib2 2026-04-26 02:58 494K
20260426T00Z_MSC_RDPS_SpecificHumidity_AGL-2m_RLatLon0.09_PT062H.grib2 2026-04-26 02:58 665K
20260426T00Z_MSC_RDPS_SpecificHumidity_AGL-40m_RLatLon0.09_PT062H.grib2 2026-04-26 02:58 500K
20260426T00Z_MSC_RDPS_SpecificHumidity_AGL-80m_RLatLon0.09_PT062H.grib2 2026-04-26 02:58 496K
20260426T00Z_MSC_RDPS_SpecificHumidity_IsbL-0001_RLatLon0.09_PT062H.grib2 2026-04-26 02:58 343K
20260426T00Z_MSC_RDPS_SpecificHumidity_IsbL-0005_RLatLon0.09_PT062H.grib2 2026-04-26 02:58 351K
20260426T00Z_MSC_RDPS_SpecificHumidity_IsbL-0010_RLatLon0.09_PT062H.grib2 2026-04-26 02:58 392K
20260426T00Z_MSC_RDPS_SpecificHumidity_IsbL-0020_RLatLon0.09_PT062H.grib2 2026-04-26 02:58 382K
20260426T00Z_MSC_RDPS_SpecificHumidity_IsbL-0030_RLatLon0.09_PT062H.grib2 2026-04-26 02:58 472K
20260426T00Z_MSC_RDPS_SpecificHumidity_IsbL-0050_RLatLon0.09_PT062H.grib2 2026-04-26 02:58 459K
20260426T00Z_MSC_RDPS_SpecificHumidity_IsbL-0100_RLatLon0.09_PT062H.grib2 2026-04-26 02:58 424K
20260426T00Z_MSC_RDPS_SpecificHumidity_IsbL-0150_RLatLon0.09_PT062H.grib2 2026-04-26 02:58 357K
20260426T00Z_MSC_RDPS_SpecificHumidity_IsbL-0175_RLatLon0.09_PT062H.grib2 2026-04-26 02:58 461K
20260426T00Z_MSC_RDPS_SpecificHumidity_IsbL-0200_RLatLon0.09_PT062H.grib2 2026-04-26 02:58 453K
20260426T00Z_MSC_RDPS_SpecificHumidity_IsbL-0225_RLatLon0.09_PT062H.grib2 2026-04-26 02:58 451K
20260426T00Z_MSC_RDPS_SpecificHumidity_IsbL-0250_RLatLon0.09_PT062H.grib2 2026-04-26 02:58 557K
20260426T00Z_MSC_RDPS_SpecificHumidity_IsbL-0275_RLatLon0.09_PT062H.grib2 2026-04-26 02:58 474K
20260426T00Z_MSC_RDPS_SpecificHumidity_IsbL-0300_RLatLon0.09_PT062H.grib2 2026-04-26 02:58 570K
20260426T00Z_MSC_RDPS_SpecificHumidity_IsbL-0350_RLatLon0.09_PT062H.grib2 2026-04-26 02:58 536K
20260426T00Z_MSC_RDPS_SpecificHumidity_IsbL-0400_RLatLon0.09_PT062H.grib2 2026-04-26 02:58 517K
20260426T00Z_MSC_RDPS_SpecificHumidity_IsbL-0450_RLatLon0.09_PT062H.grib2 2026-04-26 02:58 569K
20260426T00Z_MSC_RDPS_SpecificHumidity_IsbL-0500_RLatLon0.09_PT062H.grib2 2026-04-26 02:58 504K
20260426T00Z_MSC_RDPS_SpecificHumidity_IsbL-0550_RLatLon0.09_PT062H.grib2 2026-04-26 02:58 560K
20260426T00Z_MSC_RDPS_SpecificHumidity_IsbL-0600_RLatLon0.09_PT062H.grib2 2026-04-26 02:58 627K
20260426T00Z_MSC_RDPS_SpecificHumidity_IsbL-0650_RLatLon0.09_PT062H.grib2 2026-04-26 02:58 542K
20260426T00Z_MSC_RDPS_SpecificHumidity_IsbL-0700_RLatLon0.09_PT062H.grib2 2026-04-26 02:58 588K
20260426T00Z_MSC_RDPS_SpecificHumidity_IsbL-0750_RLatLon0.09_PT062H.grib2 2026-04-26 02:58 644K
20260426T00Z_MSC_RDPS_SpecificHumidity_IsbL-0800_RLatLon0.09_PT062H.grib2 2026-04-26 02:58 717K
20260426T00Z_MSC_RDPS_SpecificHumidity_IsbL-0850_RLatLon0.09_PT062H.grib2 2026-04-26 02:58 802K
20260426T00Z_MSC_RDPS_SpecificHumidity_IsbL-0875_RLatLon0.09_PT062H.grib2 2026-04-26 02:58 827K
20260426T00Z_MSC_RDPS_SpecificHumidity_IsbL-0900_RLatLon0.09_PT062H.grib2 2026-04-26 02:58 837K
20260426T00Z_MSC_RDPS_SpecificHumidity_IsbL-0925_RLatLon0.09_PT062H.grib2 2026-04-26 02:58 838K
20260426T00Z_MSC_RDPS_SpecificHumidity_IsbL-0950_RLatLon0.09_PT062H.grib2 2026-04-26 02:58 838K
20260426T00Z_MSC_RDPS_SpecificHumidity_IsbL-0970_RLatLon0.09_PT062H.grib2 2026-04-26 02:58 693K
20260426T00Z_MSC_RDPS_SpecificHumidity_IsbL-0985_RLatLon0.09_PT062H.grib2 2026-04-26 02:58 688K
20260426T00Z_MSC_RDPS_SpecificHumidity_IsbL-1000_RLatLon0.09_PT062H.grib2 2026-04-26 02:58 685K
20260426T00Z_MSC_RDPS_SpecificHumidity_IsbL-1015_RLatLon0.09_PT062H.grib2 2026-04-26 02:58 677K
20260426T00Z_MSC_RDPS_SpecificHumidity_Sfc_RLatLon0.09_PT062H.grib2 2026-04-26 02:58 304K
20260426T00Z_MSC_RDPS_StormRelativeHelicity_EtaL-10000_RLatLon0.09_PT062H.grib2 2026-04-26 02:58 1.1M
20260426T00Z_MSC_RDPS_StormSeverityIndex_EtaL-10000_RLatLon0.09_PT062H.grib2 2026-04-26 02:58 1.2M
20260426T00Z_MSC_RDPS_Thickness_IsbL-0850to0700_RLatLon0.09_PT062H.grib2 2026-04-26 02:58 176K
20260426T00Z_MSC_RDPS_Thickness_IsbL-1000to0500_RLatLon0.09_PT062H.grib2 2026-04-26 02:58 200K
20260426T00Z_MSC_RDPS_Thickness_IsbL-1000to0850_RLatLon0.09_PT062H.grib2 2026-04-26 02:58 263K
20260426T00Z_MSC_RDPS_TotalCloudCover_Sfc_RLatLon0.09_PT062H.grib2 2026-04-26 02:58 668K
20260426T00Z_MSC_RDPS_TotalTotalsIndex_Sfc_RLatLon0.09_PT062H.grib2 2026-04-26 02:58 2.4M
20260426T00Z_MSC_RDPS_UVIndex-ClearSky_Sfc_RLatLon0.09_PT062H.grib2 2026-04-26 02:58 207K
20260426T00Z_MSC_RDPS_UVIndex_Sfc_RLatLon0.09_PT062H.grib2 2026-04-26 02:58 451K
20260426T00Z_MSC_RDPS_UpwardLongwaveRadiationFlux_NTAtm_RLatLon0.09_PT062H.grib2 2026-04-26 02:58 490K
20260426T00Z_MSC_RDPS_UpwardShortwaveRadiationFlux_NTAtm_RLatLon0.09_PT062H.grib2 2026-04-26 02:58 408K
20260426T00Z_MSC_RDPS_VerticalVelocity_IsbL-0250_RLatLon0.09_PT062H.grib2 2026-04-26 02:58 555K
20260426T00Z_MSC_RDPS_VerticalVelocity_IsbL-0500_RLatLon0.09_PT062H.grib2 2026-04-26 02:58 544K
20260426T00Z_MSC_RDPS_VerticalVelocity_IsbL-0700_RLatLon0.09_PT062H.grib2 2026-04-26 02:58 591K
20260426T00Z_MSC_RDPS_VerticalVelocity_IsbL-0850_RLatLon0.09_PT062H.grib2 2026-04-26 02:58 692K
20260426T00Z_MSC_RDPS_VerticalWindShear_EtaL-6500_RLatLon0.09_PT062H.grib2 2026-04-26 02:58 1.2M
20260426T00Z_MSC_RDPS_WindChill_Sfc_RLatLon0.09_PT062H.grib2 2026-04-26 02:58 1.2M
20260426T00Z_MSC_RDPS_WindDir_AGL-10m_RLatLon0.09_PT062H.grib2 2026-04-26 02:58 1.0M
20260426T00Z_MSC_RDPS_WindDir_AGL-120m_RLatLon0.09_PT062H.grib2 2026-04-26 02:58 616K
20260426T00Z_MSC_RDPS_WindDir_AGL-40m_RLatLon0.09_PT062H.grib2 2026-04-26 02:58 644K
20260426T00Z_MSC_RDPS_WindDir_AGL-80m_RLatLon0.09_PT062H.grib2 2026-04-26 02:58 627K
20260426T00Z_MSC_RDPS_WindDir_IsbL-0001_RLatLon0.09_PT062H.grib2 2026-04-26 02:58 304K
20260426T00Z_MSC_RDPS_WindDir_IsbL-0005_RLatLon0.09_PT062H.grib2 2026-04-26 02:58 359K
20260426T00Z_MSC_RDPS_WindDir_IsbL-0010_RLatLon0.09_PT062H.grib2 2026-04-26 02:58 365K
20260426T00Z_MSC_RDPS_WindDir_IsbL-0020_RLatLon0.09_PT062H.grib2 2026-04-26 02:58 404K
20260426T00Z_MSC_RDPS_WindDir_IsbL-0030_RLatLon0.09_PT062H.grib2 2026-04-26 02:58 417K
20260426T00Z_MSC_RDPS_WindDir_IsbL-0050_RLatLon0.09_PT062H.grib2 2026-04-26 02:58 427K
20260426T00Z_MSC_RDPS_WindDir_IsbL-0100_RLatLon0.09_PT062H.grib2 2026-04-26 02:58 415K
20260426T00Z_MSC_RDPS_WindDir_IsbL-0150_RLatLon0.09_PT062H.grib2 2026-04-26 02:58 409K
20260426T00Z_MSC_RDPS_WindDir_IsbL-0175_RLatLon0.09_PT062H.grib2 2026-04-26 02:58 429K
20260426T00Z_MSC_RDPS_WindDir_IsbL-0200_RLatLon0.09_PT062H.grib2 2026-04-26 02:58 437K
20260426T00Z_MSC_RDPS_WindDir_IsbL-0225_RLatLon0.09_PT062H.grib2 2026-04-26 02:58 444K
20260426T00Z_MSC_RDPS_WindDir_IsbL-0250_RLatLon0.09_PT062H.grib2 2026-04-26 02:58 448K
20260426T00Z_MSC_RDPS_WindDir_IsbL-0275_RLatLon0.09_PT062H.grib2 2026-04-26 02:58 470K
20260426T00Z_MSC_RDPS_WindDir_IsbL-0300_RLatLon0.09_PT062H.grib2 2026-04-26 02:58 468K
20260426T00Z_MSC_RDPS_WindDir_IsbL-0350_RLatLon0.09_PT062H.grib2 2026-04-26 02:58 488K
20260426T00Z_MSC_RDPS_WindDir_IsbL-0400_RLatLon0.09_PT062H.grib2 2026-04-26 02:58 514K
20260426T00Z_MSC_RDPS_WindDir_IsbL-0450_RLatLon0.09_PT062H.grib2 2026-04-26 02:58 523K
20260426T00Z_MSC_RDPS_WindDir_IsbL-0500_RLatLon0.09_PT062H.grib2 2026-04-26 02:58 535K
20260426T00Z_MSC_RDPS_WindDir_IsbL-0550_RLatLon0.09_PT062H.grib2 2026-04-26 02:58 549K
20260426T00Z_MSC_RDPS_WindDir_IsbL-0600_RLatLon0.09_PT062H.grib2 2026-04-26 02:58 567K
20260426T00Z_MSC_RDPS_WindDir_IsbL-0650_RLatLon0.09_PT062H.grib2 2026-04-26 02:58 609K
20260426T00Z_MSC_RDPS_WindDir_IsbL-0700_RLatLon0.09_PT062H.grib2 2026-04-26 02:58 651K
20260426T00Z_MSC_RDPS_WindDir_IsbL-0750_RLatLon0.09_PT062H.grib2 2026-04-26 02:58 703K
20260426T00Z_MSC_RDPS_WindDir_IsbL-0800_RLatLon0.09_PT062H.grib2 2026-04-26 02:58 777K
20260426T00Z_MSC_RDPS_WindDir_IsbL-0850_RLatLon0.09_PT062H.grib2 2026-04-26 02:58 858K
20260426T00Z_MSC_RDPS_WindDir_IsbL-0875_RLatLon0.09_PT062H.grib2 2026-04-26 02:58 887K
20260426T00Z_MSC_RDPS_WindDir_IsbL-0900_RLatLon0.09_PT062H.grib2 2026-04-26 02:58 905K
20260426T00Z_MSC_RDPS_WindDir_IsbL-0925_RLatLon0.09_PT062H.grib2 2026-04-26 02:58 916K
20260426T00Z_MSC_RDPS_WindDir_IsbL-0950_RLatLon0.09_PT062H.grib2 2026-04-26 02:58 918K
20260426T00Z_MSC_RDPS_WindDir_IsbL-0970_RLatLon0.09_PT062H.grib2 2026-04-26 02:58 926K
20260426T00Z_MSC_RDPS_WindDir_IsbL-0985_RLatLon0.09_PT062H.grib2 2026-04-26 02:58 937K
20260426T00Z_MSC_RDPS_WindDir_IsbL-1000_RLatLon0.09_PT062H.grib2 2026-04-26 02:58 952K
20260426T00Z_MSC_RDPS_WindDir_IsbL-1015_RLatLon0.09_PT062H.grib2 2026-04-26 02:58 970K
20260426T00Z_MSC_RDPS_WindGust-Max_AGL-10m_RLatLon0.09_PT062H.grib2 2026-04-26 02:58 1.0M
20260426T00Z_MSC_RDPS_WindGust-Min_AGL-10m_RLatLon0.09_PT062H.grib2 2026-04-26 02:58 1.0M
20260426T00Z_MSC_RDPS_WindGust_AGL-10m_RLatLon0.09_PT062H.grib2 2026-04-26 02:58 1.0M
20260426T00Z_MSC_RDPS_WindSpeed_AGL-10m_RLatLon0.09_PT062H.grib2 2026-04-26 02:58 852K
20260426T00Z_MSC_RDPS_WindSpeed_AGL-120m_RLatLon0.09_PT062H.grib2 2026-04-26 02:58 546K
20260426T00Z_MSC_RDPS_WindSpeed_AGL-40m_RLatLon0.09_PT062H.grib2 2026-04-26 02:58 549K
20260426T00Z_MSC_RDPS_WindSpeed_AGL-80m_RLatLon0.09_PT062H.grib2 2026-04-26 02:58 547K
20260426T00Z_MSC_RDPS_WindSpeed_IsbL-0001_RLatLon0.09_PT062H.grib2 2026-04-26 02:58 256K
20260426T00Z_MSC_RDPS_WindSpeed_IsbL-0005_RLatLon0.09_PT062H.grib2 2026-04-26 02:58 299K
20260426T00Z_MSC_RDPS_WindSpeed_IsbL-0010_RLatLon0.09_PT062H.grib2 2026-04-26 02:58 312K
20260426T00Z_MSC_RDPS_WindSpeed_IsbL-0020_RLatLon0.09_PT062H.grib2 2026-04-26 02:58 331K
20260426T00Z_MSC_RDPS_WindSpeed_IsbL-0030_RLatLon0.09_PT062H.grib2 2026-04-26 02:58 325K
20260426T00Z_MSC_RDPS_WindSpeed_IsbL-0050_RLatLon0.09_PT062H.grib2 2026-04-26 02:58 358K
20260426T00Z_MSC_RDPS_WindSpeed_IsbL-0100_RLatLon0.09_PT062H.grib2 2026-04-26 02:58 483K
20260426T00Z_MSC_RDPS_WindSpeed_IsbL-0150_RLatLon0.09_PT062H.grib2 2026-04-26 02:58 386K
20260426T00Z_MSC_RDPS_WindSpeed_IsbL-0175_RLatLon0.09_PT062H.grib2 2026-04-26 02:58 413K
20260426T00Z_MSC_RDPS_WindSpeed_IsbL-0200_RLatLon0.09_PT062H.grib2 2026-04-26 02:58 448K
20260426T00Z_MSC_RDPS_WindSpeed_IsbL-0225_RLatLon0.09_PT062H.grib2 2026-04-26 02:58 453K
20260426T00Z_MSC_RDPS_WindSpeed_IsbL-0250_RLatLon0.09_PT062H.grib2 2026-04-26 02:58 457K
20260426T00Z_MSC_RDPS_WindSpeed_IsbL-0275_RLatLon0.09_PT062H.grib2 2026-04-26 02:58 476K
20260426T00Z_MSC_RDPS_WindSpeed_IsbL-0300_RLatLon0.09_PT062H.grib2 2026-04-26 02:58 474K
20260426T00Z_MSC_RDPS_WindSpeed_IsbL-0350_RLatLon0.09_PT062H.grib2 2026-04-26 02:58 467K
20260426T00Z_MSC_RDPS_WindSpeed_IsbL-0400_RLatLon0.09_PT062H.grib2 2026-04-26 02:58 470K
20260426T00Z_MSC_RDPS_WindSpeed_IsbL-0450_RLatLon0.09_PT062H.grib2 2026-04-26 02:58 586K
20260426T00Z_MSC_RDPS_WindSpeed_IsbL-0500_RLatLon0.09_PT062H.grib2 2026-04-26 02:58 581K
20260426T00Z_MSC_RDPS_WindSpeed_IsbL-0550_RLatLon0.09_PT062H.grib2 2026-04-26 02:58 580K
20260426T00Z_MSC_RDPS_WindSpeed_IsbL-0600_RLatLon0.09_PT062H.grib2 2026-04-26 02:58 588K
20260426T00Z_MSC_RDPS_WindSpeed_IsbL-0650_RLatLon0.09_PT062H.grib2 2026-04-26 02:58 608K
20260426T00Z_MSC_RDPS_WindSpeed_IsbL-0700_RLatLon0.09_PT062H.grib2 2026-04-26 02:58 672K
20260426T00Z_MSC_RDPS_WindSpeed_IsbL-0750_RLatLon0.09_PT062H.grib2 2026-04-26 02:58 702K
20260426T00Z_MSC_RDPS_WindSpeed_IsbL-0800_RLatLon0.09_PT062H.grib2 2026-04-26 02:58 752K
20260426T00Z_MSC_RDPS_WindSpeed_IsbL-0850_RLatLon0.09_PT062H.grib2 2026-04-26 02:58 814K
20260426T00Z_MSC_RDPS_WindSpeed_IsbL-0875_RLatLon0.09_PT062H.grib2 2026-04-26 02:58 837K
20260426T00Z_MSC_RDPS_WindSpeed_IsbL-0900_RLatLon0.09_PT062H.grib2 2026-04-26 02:58 853K
20260426T00Z_MSC_RDPS_WindSpeed_IsbL-0925_RLatLon0.09_PT062H.grib2 2026-04-26 02:58 865K
20260426T00Z_MSC_RDPS_WindSpeed_IsbL-0950_RLatLon0.09_PT062H.grib2 2026-04-26 02:58 864K
20260426T00Z_MSC_RDPS_WindSpeed_IsbL-0970_RLatLon0.09_PT062H.grib2 2026-04-26 02:58 863K
20260426T00Z_MSC_RDPS_WindSpeed_IsbL-0985_RLatLon0.09_PT062H.grib2 2026-04-26 02:58 860K
20260426T00Z_MSC_RDPS_WindSpeed_IsbL-1000_RLatLon0.09_PT062H.grib2 2026-04-26 02:58 858K
20260426T00Z_MSC_RDPS_WindSpeed_IsbL-1015_RLatLon0.09_PT062H.grib2 2026-04-26 02:58 851K
20260426T00Z_MSC_RDPS_WindU_AGL-10m_RLatLon0.09_PT062H.grib2 2026-04-26 02:58 438K
20260426T00Z_MSC_RDPS_WindU_AGL-120m_RLatLon0.09_PT062H.grib2 2026-04-26 02:58 424K
20260426T00Z_MSC_RDPS_WindU_AGL-40m_RLatLon0.09_PT062H.grib2 2026-04-26 02:58 545K
20260426T00Z_MSC_RDPS_WindU_AGL-80m_RLatLon0.09_PT062H.grib2 2026-04-26 02:58 425K
20260426T00Z_MSC_RDPS_WindU_IsbL-0001_RLatLon0.09_PT062H.grib2 2026-04-26 02:58 296K
20260426T00Z_MSC_RDPS_WindU_IsbL-0005_RLatLon0.09_PT062H.grib2 2026-04-26 02:58 335K
20260426T00Z_MSC_RDPS_WindU_IsbL-0010_RLatLon0.09_PT062H.grib2 2026-04-26 02:58 303K
20260426T00Z_MSC_RDPS_WindU_IsbL-0020_RLatLon0.09_PT062H.grib2 2026-04-26 02:58 359K
20260426T00Z_MSC_RDPS_WindU_IsbL-0030_RLatLon0.09_PT062H.grib2 2026-04-26 02:58 355K
20260426T00Z_MSC_RDPS_WindU_IsbL-0050_RLatLon0.09_PT062H.grib2 2026-04-26 02:58 385K
20260426T00Z_MSC_RDPS_WindU_IsbL-0100_RLatLon0.09_PT062H.grib2 2026-04-26 02:58 342K
20260426T00Z_MSC_RDPS_WindU_IsbL-0150_RLatLon0.09_PT062H.grib2 2026-04-26 02:58 403K
20260426T00Z_MSC_RDPS_WindU_IsbL-0175_RLatLon0.09_PT062H.grib2 2026-04-26 02:58 428K
20260426T00Z_MSC_RDPS_WindU_IsbL-0200_RLatLon0.09_PT062H.grib2 2026-04-26 02:58 440K
20260426T00Z_MSC_RDPS_WindU_IsbL-0225_RLatLon0.09_PT062H.grib2 2026-04-26 02:58 345K
20260426T00Z_MSC_RDPS_WindU_IsbL-0250_RLatLon0.09_PT062H.grib2 2026-04-26 02:58 447K
20260426T00Z_MSC_RDPS_WindU_IsbL-0275_RLatLon0.09_PT062H.grib2 2026-04-26 02:58 362K
20260426T00Z_MSC_RDPS_WindU_IsbL-0300_RLatLon0.09_PT062H.grib2 2026-04-26 02:58 460K
20260426T00Z_MSC_RDPS_WindU_IsbL-0350_RLatLon0.09_PT062H.grib2 2026-04-26 02:58 469K
20260426T00Z_MSC_RDPS_WindU_IsbL-0400_RLatLon0.09_PT062H.grib2 2026-04-26 02:58 473K
20260426T00Z_MSC_RDPS_WindU_IsbL-0450_RLatLon0.09_PT062H.grib2 2026-04-26 02:58 470K
20260426T00Z_MSC_RDPS_WindU_IsbL-0500_RLatLon0.09_PT062H.grib2 2026-04-26 02:58 468K
20260426T00Z_MSC_RDPS_WindU_IsbL-0550_RLatLon0.09_PT062H.grib2 2026-04-26 02:58 468K
20260426T00Z_MSC_RDPS_WindU_IsbL-0600_RLatLon0.09_PT062H.grib2 2026-04-26 02:58 459K
20260426T00Z_MSC_RDPS_WindU_IsbL-0650_RLatLon0.09_PT062H.grib2 2026-04-26 02:58 477K
20260426T00Z_MSC_RDPS_WindU_IsbL-0700_RLatLon0.09_PT062H.grib2 2026-04-26 02:58 619K
20260426T00Z_MSC_RDPS_WindU_IsbL-0750_RLatLon0.09_PT062H.grib2 2026-04-26 02:58 524K
20260426T00Z_MSC_RDPS_WindU_IsbL-0800_RLatLon0.09_PT062H.grib2 2026-04-26 02:58 567K
20260426T00Z_MSC_RDPS_WindU_IsbL-0850_RLatLon0.09_PT062H.grib2 2026-04-26 02:58 623K
20260426T00Z_MSC_RDPS_WindU_IsbL-0875_RLatLon0.09_PT062H.grib2 2026-04-26 02:58 643K
20260426T00Z_MSC_RDPS_WindU_IsbL-0900_RLatLon0.09_PT062H.grib2 2026-04-26 02:58 655K
20260426T00Z_MSC_RDPS_WindU_IsbL-0925_RLatLon0.09_PT062H.grib2 2026-04-26 02:58 662K
20260426T00Z_MSC_RDPS_WindU_IsbL-0950_RLatLon0.09_PT062H.grib2 2026-04-26 02:58 660K
20260426T00Z_MSC_RDPS_WindU_IsbL-0970_RLatLon0.09_PT062H.grib2 2026-04-26 02:58 658K
20260426T00Z_MSC_RDPS_WindU_IsbL-0985_RLatLon0.09_PT062H.grib2 2026-04-26 02:58 656K
20260426T00Z_MSC_RDPS_WindU_IsbL-1000_RLatLon0.09_PT062H.grib2 2026-04-26 02:58 796K
20260426T00Z_MSC_RDPS_WindU_IsbL-1015_RLatLon0.09_PT062H.grib2 2026-04-26 02:58 790K
20260426T00Z_MSC_RDPS_WindV_AGL-10m_RLatLon0.09_PT062H.grib2 2026-04-26 02:58 437K
20260426T00Z_MSC_RDPS_WindV_AGL-120m_RLatLon0.09_PT062H.grib2 2026-04-26 02:58 539K
20260426T00Z_MSC_RDPS_WindV_AGL-40m_RLatLon0.09_PT062H.grib2 2026-04-26 02:58 542K
20260426T00Z_MSC_RDPS_WindV_AGL-80m_RLatLon0.09_PT062H.grib2 2026-04-26 02:58 540K
20260426T00Z_MSC_RDPS_WindV_IsbL-0001_RLatLon0.09_PT062H.grib2 2026-04-26 02:58 245K
20260426T00Z_MSC_RDPS_WindV_IsbL-0005_RLatLon0.09_PT062H.grib2 2026-04-26 02:58 332K
20260426T00Z_MSC_RDPS_WindV_IsbL-0010_RLatLon0.09_PT062H.grib2 2026-04-26 02:58 303K
20260426T00Z_MSC_RDPS_WindV_IsbL-0020_RLatLon0.09_PT062H.grib2 2026-04-26 02:58 323K
20260426T00Z_MSC_RDPS_WindV_IsbL-0030_RLatLon0.09_PT062H.grib2 2026-04-26 02:58 319K
20260426T00Z_MSC_RDPS_WindV_IsbL-0050_RLatLon0.09_PT062H.grib2 2026-04-26 02:58 351K
20260426T00Z_MSC_RDPS_WindV_IsbL-0100_RLatLon0.09_PT062H.grib2 2026-04-26 02:58 337K
20260426T00Z_MSC_RDPS_WindV_IsbL-0150_RLatLon0.09_PT062H.grib2 2026-04-26 02:58 398K
20260426T00Z_MSC_RDPS_WindV_IsbL-0175_RLatLon0.09_PT062H.grib2 2026-04-26 02:58 426K
20260426T00Z_MSC_RDPS_WindV_IsbL-0200_RLatLon0.09_PT062H.grib2 2026-04-26 02:58 441K
20260426T00Z_MSC_RDPS_WindV_IsbL-0225_RLatLon0.09_PT062H.grib2 2026-04-26 02:58 344K
20260426T00Z_MSC_RDPS_WindV_IsbL-0250_RLatLon0.09_PT062H.grib2 2026-04-26 02:58 345K
20260426T00Z_MSC_RDPS_WindV_IsbL-0275_RLatLon0.09_PT062H.grib2 2026-04-26 02:58 359K
20260426T00Z_MSC_RDPS_WindV_IsbL-0300_RLatLon0.09_PT062H.grib2 2026-04-26 02:58 357K
20260426T00Z_MSC_RDPS_WindV_IsbL-0350_RLatLon0.09_PT062H.grib2 2026-04-26 02:58 365K
20260426T00Z_MSC_RDPS_WindV_IsbL-0400_RLatLon0.09_PT062H.grib2 2026-04-26 02:58 367K
20260426T00Z_MSC_RDPS_WindV_IsbL-0450_RLatLon0.09_PT062H.grib2 2026-04-26 02:58 468K
20260426T00Z_MSC_RDPS_WindV_IsbL-0500_RLatLon0.09_PT062H.grib2 2026-04-26 02:58 465K
20260426T00Z_MSC_RDPS_WindV_IsbL-0550_RLatLon0.09_PT062H.grib2 2026-04-26 02:58 465K
20260426T00Z_MSC_RDPS_WindV_IsbL-0600_RLatLon0.09_PT062H.grib2 2026-04-26 02:58 472K
20260426T00Z_MSC_RDPS_WindV_IsbL-0650_RLatLon0.09_PT062H.grib2 2026-04-26 02:58 490K
20260426T00Z_MSC_RDPS_WindV_IsbL-0700_RLatLon0.09_PT062H.grib2 2026-04-26 02:58 508K
20260426T00Z_MSC_RDPS_WindV_IsbL-0750_RLatLon0.09_PT062H.grib2 2026-04-26 02:58 519K
20260426T00Z_MSC_RDPS_WindV_IsbL-0800_RLatLon0.09_PT062H.grib2 2026-04-26 02:58 564K
20260426T00Z_MSC_RDPS_WindV_IsbL-0850_RLatLon0.09_PT062H.grib2 2026-04-26 02:58 618K
20260426T00Z_MSC_RDPS_WindV_IsbL-0875_RLatLon0.09_PT062H.grib2 2026-04-26 02:58 638K
20260426T00Z_MSC_RDPS_WindV_IsbL-0900_RLatLon0.09_PT062H.grib2 2026-04-26 02:58 651K
20260426T00Z_MSC_RDPS_WindV_IsbL-0925_RLatLon0.09_PT062H.grib2 2026-04-26 02:58 661K
20260426T00Z_MSC_RDPS_WindV_IsbL-0950_RLatLon0.09_PT062H.grib2 2026-04-26 02:58 659K
20260426T00Z_MSC_RDPS_WindV_IsbL-0970_RLatLon0.09_PT062H.grib2 2026-04-26 02:58 657K
20260426T00Z_MSC_RDPS_WindV_IsbL-0985_RLatLon0.09_PT062H.grib2 2026-04-26 02:58 795K
20260426T00Z_MSC_RDPS_WindV_IsbL-1000_RLatLon0.09_PT062H.grib2 2026-04-26 02:58 792K
20260426T00Z_MSC_RDPS_WindV_IsbL-1015_RLatLon0.09_PT062H.grib2 2026-04-26 02:58 787K